{"data":{"norad_id":66767,"intl_designator":"2025-276DF","name":"ACCENTURE-1","alt_names":[],"object_type":"PAYLOAD","status":"ACTIVE","operator":null,"country":"UK","launch_date":"2025-11-28","launch_site_code":"AFWTR","launch_vehicle":null,"mission":null,"orbit_class":"UNKNOWN","rcs_meters":null,"size_class":null,"mass_kg":null,"dimensions":null,"purposes":[],"wikipedia_slug":null,"has_3d_model":false,"image_url":null,"decayed_at":null,"tle_current":{"epoch":"2026-09-20T10:33:43.902144Z","epoch_age_seconds":122757,"freshness":"FRESH","line1":"1 66767U 25276DF  26263.44009146  .00002142  00000+0  10101-3 0  9995","line2":"2 66767  97.4082 335.4316 0001455 117.9690 242.1693 15.20550495 44907","mean_motion":15.20550495,"eccentricity":0.0001455,"inclination_deg":97.4082,"raan_deg":335.4316,"arg_perigee_deg":117.969,"mean_anomaly_deg":242.1693,"bstar":0.00010101,"rev_number":4490,"period_min":94.702543896775,"perigee_km":503.17763505165,"apogee_km":505.18038901115,"semimajor_km":6882.3160120314,"source":"CELESTRAK","updated_at":"2026-09-21T09:00:16.185186Z"}}}